Time,TemperatureF,DewpointF,PressureIn,WindDirection,WindDirectionDegrees,WindSpeedMPH,WindSpeedGustMPH,Humidity,HourlyPrecipIn,Conditions,Clouds,dailyrainin,SoftwareType,DateUTC
2013-01-17 00:00:00,47.2,0.0,29.75,North,0,0.0,0.0,0,0.15,,,1.14,WUHU216HW,2013-01-17 05:00:00,
2013-01-17 00:01:00,47.2,0.0,29.75,North,0,0.0,0.0,0,0.15,,,0.00,WUHU216HW,2013-01-17 05:01:00,
2013-01-17 00:03:00,47.2,0.0,29.75,North,0,0.0,0.0,0,0.15,,,0.00,WUHU216HW,2013-01-17 05:03:00,
2013-01-17 00:04:00,47.2,0.0,29.75,North,0,0.0,0.0,0,0.15,,,0.00,WUHU216HW,2013-01-17 05:04:00,
2013-01-17 00:09:00,47.2,0.0,29.75,North,0,0.0,0.0,0,0.15,,,0.00,WUHU216HW,2013-01-17 05:09:00,
2013-01-17 00:14:00,47.2,0.0,29.76,North,0,0.0,0.0,0,0.15,,,0.00,WUHU216HW,2013-01-17 05:14:00,
2013-01-17 00:19:00,47.3,0.0,29.76,North,0,0.0,0.0,0,0.13,,,0.00,WUHU216HW,2013-01-17 05:19:00,
2013-01-17 00:24:00,47.3,0.0,29.76,North,0,0.0,0.0,0,0.11,,,0.00,WUHU216HW,2013-01-17 05:24:00,
2013-01-17 00:29:00,47.3,0.0,29.76,North,0,0.0,0.0,0,0.09,,,0.00,WUHU216HW,2013-01-17 05:29:00,
2013-01-17 00:34:00,47.3,0.0,29.76,North,0,0.0,0.0,0,0.09,,,0.00,WUHU216HW,2013-01-17 05:34:00,
2013-01-17 00:39:00,47.3,0.0,29.76,North,0,0.0,0.0,0,0.09,,,0.00,WUHU216HW,2013-01-17 05:39:00,
2013-01-17 00:44:00,0.0,0.0,29.76,North,0,0.0,0.0,0,0.06,,,0.00,WUHU216HW,2013-01-17 05:44:00,
2013-01-17 00:49:00,0.0,0.0,29.75,North,0,0.0,0.0,0,0.02,,,0.00,WUHU216HW,2013-01-17 05:49:00,
2013-01-17 00:54:00,47.5,0.0,29.76,North,0,0.0,0.0,0,0.06,,,0.04,WUHU216HW,2013-01-17 05:54:00,
2013-01-17 00:59:00,41.7,0.0,29.76,North,0,0.0,0.0,0,0.04,,,0.04,WUHU216HW,2013-01-17 05:59:00,
2013-01-17 01:04:00,0.0,0.0,29.76,North,0,0.0,0.0,0,0.04,,,0.04,WUHU216HW,2013-01-17 06:04:00,
2013-01-17 01:09:00,0.0,0.0,29.76,North,0,0.0,0.0,0,0.04,,,0.04,WUHU216HW,2013-01-17 06:09:00,
2013-01-17 01:14:00,47.7,0.0,29.75,North,0,0.0,0.0,0,0.09,,,0.08,WUHU216HW,2013-01-17 06:14:00,
2013-01-17 01:19:00,47.7,0.0,29.75,North,0,0.0,0.0,0,0.11,,,0.10,WUHU216HW,2013-01-17 06:19:00,
2013-01-17 01:24:00,47.7,0.0,29.75,North,0,0.0,0.0,0,0.13,,,0.13,WUHU216HW,2013-01-17 06:24:00,
2013-01-17 01:29:00,47.7,0.0,29.75,North,0,0.0,0.0,0,0.13,,,0.13,WUHU216HW,2013-01-17 06:29:00,
2013-01-17 01:34:00,47.7,0.0,29.75,North,0,0.0,0.0,0,0.15,,,0.15,WUHU216HW,2013-01-17 06:34:00,
2013-01-17 01:39:00,47.9,0.0,29.75,North,0,0.0,0.0,0,0.15,,,0.15,WUHU216HW,2013-01-17 06:39:00,
2013-01-17 01:44:00,47.7,0.0,29.75,North,0,0.0,0.0,0,0.15,,,0.15,WUHU216HW,2013-01-17 06:44:00,
2013-01-17 01:49:00,47.7,0.0,29.75,North,0,0.0,0.0,0,0.11,,,0.15,WUHU216HW,2013-01-17 06:49:00,
2013-01-17 01:54:00,47.9,0.0,29.75,North,0,0.0,0.0,0,0.13,,,0.17,WUHU216HW,2013-01-17 06:54:00,
2013-01-17 01:59:00,47.8,0.0,29.74,North,0,0.0,0.0,0,0.13,,,0.17,WUHU216HW,2013-01-17 06:59:00,
2013-01-17 02:04:00,0.0,0.0,29.74,North,0,0.0,0.0,0,0.13,,,0.17,WUHU216HW,2013-01-17 07:04:00,
2013-01-17 02:09:00,0.0,0.0,29.74,North,0,0.0,0.0,0,0.13,,,0.17,WUHU216HW,2013-01-17 07:09:00,
2013-01-17 02:14:00,0.0,0.0,29.74,North,0,0.0,0.0,0,0.09,,,0.17,WUHU216HW,2013-01-17 07:14:00,
2013-01-17 02:19:00,0.0,0.0,29.74,North,0,0.0,0.0,0,0.06,,,0.17,WUHU216HW,2013-01-17 07:19:00,
2013-01-17 02:24:00,0.0,0.0,29.74,North,0,0.0,0.0,0,0.04,,,0.17,WUHU216HW,2013-01-17 07:24:00,
2013-01-17 02:29:00,0.0,0.0,29.74,North,0,0.0,0.0,0,0.02,,,0.17,WUHU216HW,2013-01-17 07:29:00,
2013-01-17 02:34:00,0.0,0.0,29.75,North,0,0.0,0.0,0,0.02,,,0.17,WUHU216HW,2013-01-17 07:34:00,
2013-01-17 02:39:00,0.0,0.0,29.75,North,0,0.0,0.0,0,0.02,,,0.17,WUHU216HW,2013-01-17 07:39:00,
2013-01-17 02:44:00,0.0,0.0,29.75,North,0,0.0,0.0,0,0.02,,,0.17,WUHU216HW,2013-01-17 07:44:00,
2013-01-17 02:49:00,0.0,0.0,29.75,North,0,0.0,0.0,0,0.00,,,0.17,WUHU216HW,2013-01-17 07:49:00,
2013-01-17 02:54:00,0.0,0.0,29.76,North,0,0.0,0.0,0,0.00,,,0.17,WUHU216HW,2013-01-17 07:54:00,
2013-01-17 02:59:00,0.0,0.0,29.76,North,0,0.0,0.0,0,0.00,,,0.17,WUHU216HW,2013-01-17 07:59:00,
2013-01-17 03:04:00,0.0,0.0,29.76,North,0,0.0,0.0,0,0.00,,,0.17,WUHU216HW,2013-01-17 08:04:00,
2013-01-17 03:09:00,0.0,0.0,29.76,North,0,0.0,0.0,0,0.00,,,0.17,WUHU216HW,2013-01-17 08:09:00,
2013-01-17 03:14:00,47.9,0.0,29.76,North,0,0.0,0.0,0,0.15,,,0.32,WUHU216HW,2013-01-17 08:14:00,
2013-01-17 03:19:00,47.9,0.0,29.76,North,0,0.0,0.0,0,0.17,,,0.34,WUHU216HW,2013-01-17 08:19:00,
2013-01-17 03:24:00,47.9,0.0,29.76,North,0,0.0,0.0,0,0.17,,,0.34,WUHU216HW,2013-01-17 08:24:00,
2013-01-17 03:29:00,47.9,0.0,29.76,North,0,0.0,0.0,0,0.19,,,0.36,WUHU216HW,2013-01-17 08:29:00,
2013-01-17 03:34:00,47.9,0.0,29.76,North,0,0.0,0.0,0,0.19,,,0.36,WUHU216HW,2013-01-17 08:34:00,
2013-01-17 03:39:00,47.9,0.0,29.76,North,0,0.0,0.0,0,0.22,,,0.39,WUHU216HW,2013-01-17 08:39:00,
2013-01-17 03:44:00,47.9,0.0,29.75,North,0,0.0,0.0,0,0.26,,,0.43,WUHU216HW,2013-01-17 08:44:00,
2013-01-17 03:49:00,47.9,0.0,29.76,North,0,0.0,0.0,0,0.30,,,0.47,WUHU216HW,2013-01-17 08:49:00,
2013-01-17 03:54:00,47.9,0.0,29.75,North,0,0.0,0.0,0,0.35,,,0.51,WUHU216HW,2013-01-17 08:54:00,
2013-01-17 03:59:00,47.9,0.0,29.75,North,0,0.0,0.0,0,0.37,,,0.54,WUHU216HW,2013-01-17 08:59:00,
2013-01-17 04:04:00,47.9,0.0,29.75,North,0,0.0,0.0,0,0.43,,,0.60,WUHU216HW,2013-01-17 09:04:00,
2013-01-17 04:09:00,47.9,0.0,29.76,North,0,0.0,0.0,0,0.43,,,0.60,WUHU216HW,2013-01-17 09:09:00,
2013-01-17 04:14:00,0.0,0.0,29.76,North,0,0.0,0.0,0,0.28,,,0.60,WUHU216HW,2013-01-17 09:14:00,
2013-01-17 04:19:00,0.0,0.0,29.76,North,0,0.0,0.0,0,0.26,,,0.60,WUHU216HW,2013-01-17 09:19:00,
2013-01-17 04:24:00,0.0,0.0,29.76,North,0,0.0,0.0,0,0.26,,,0.60,WUHU216HW,2013-01-17 09:24:00,
2013-01-17 04:29:00,0.0,0.0,29.75,North,0,0.0,0.0,0,0.24,,,0.60,WUHU216HW,2013-01-17 09:29:00,
2013-01-17 04:34:00,0.0,0.0,29.76,North,0,0.0,0.0,0,0.24,,,0.60,WUHU216HW,2013-01-17 09:34:00,
2013-01-17 04:39:00,0.0,0.0,29.76,North,0,0.0,0.0,0,0.22,,,0.60,WUHU216HW,2013-01-17 09:39:00,
2013-01-17 04:44:00,0.0,0.0,29.75,North,0,0.0,0.0,0,0.17,,,0.60,WUHU216HW,2013-01-17 09:44:00,
2013-01-17 04:49:00,0.0,0.0,29.75,North,0,0.0,0.0,0,0.09,,,0.60,WUHU216HW,2013-01-17 09:49:00,
2013-01-17 04:54:00,0.0,0.0,29.75,North,0,0.0,0.0,0,0.06,,,0.60,WUHU216HW,2013-01-17 09:54:00,
2013-01-17 04:59:00,0.0,0.0,29.75,North,0,0.0,0.0,0,0.02,,,0.60,WUHU216HW,2013-01-17 09:59:00,
2013-01-17 05:04:00,0.0,0.0,29.75,North,0,0.0,0.0,0,0.00,,,0.60,WUHU216HW,2013-01-17 10:04:00,
2013-01-17 05:09:00,0.0,0.0,29.75,North,0,0.0,0.0,0,0.00,,,0.60,WUHU216HW,2013-01-17 10:09:00,
2013-01-17 05:14:00,0.0,0.0,29.76,North,0,0.0,0.0,0,0.00,,,0.60,WUHU216HW,2013-01-17 10:14:00,
2013-01-17 05:19:00,0.0,0.0,29.76,North,0,0.0,0.0,0,0.00,,,0.60,WUHU216HW,2013-01-17 10:19:00,
2013-01-17 05:24:00,0.0,0.0,29.75,North,0,0.0,0.0,0,0.00,,,0.60,WUHU216HW,2013-01-17 10:24:00,
2013-01-17 05:29:00,47.3,0.0,29.76,North,0,0.0,0.0,0,0.11,,,0.71,WUHU216HW,2013-01-17 10:29:00,
2013-01-17 05:34:00,47.3,0.0,29.76,North,0,0.0,0.0,0,0.11,,,0.71,WUHU216HW,2013-01-17 10:34:00,
2013-01-17 05:39:00,0.0,0.0,29.75,North,0,0.0,0.0,0,0.11,,,0.71,WUHU216HW,2013-01-17 10:39:00,
2013-01-17 05:44:00,0.0,0.0,29.75,North,0,0.0,0.0,0,0.11,,,0.71,WUHU216HW,2013-01-17 10:44:00,
2013-01-17 05:49:00,0.0,0.0,29.76,North,0,0.0,0.0,0,0.11,,,0.71,WUHU216HW,2013-01-17 10:49:00,
2013-01-17 05:54:00,0.0,0.0,29.76,North,0,0.0,0.0,0,0.11,,,0.71,WUHU216HW,2013-01-17 10:54:00,
2013-01-17 05:59:00,0.0,0.0,29.75,North,0,0.0,0.0,0,0.11,,,0.71,WUHU216HW,2013-01-17 10:59:00,
2013-01-17 06:04:00,0.0,0.0,29.75,North,0,0.0,0.0,0,0.11,,,0.71,WUHU216HW,2013-01-17 11:04:00,
2013-01-17 06:09:00,0.0,0.0,29.74,North,0,0.0,0.0,0,0.11,,,0.71,WUHU216HW,2013-01-17 11:09:00,
2013-01-17 06:14:00,0.0,0.0,29.74,North,0,0.0,0.0,0,0.11,,,0.71,WUHU216HW,2013-01-17 11:14:00,
2013-01-17 06:19:00,0.0,0.0,29.74,North,0,0.0,0.0,0,0.11,,,0.71,WUHU216HW,2013-01-17 11:19:00,
2013-01-17 06:24:00,0.0,0.0,29.75,North,0,0.0,0.0,0,0.09,,,0.71,WUHU216HW,2013-01-17 11:24:00,
2013-01-17 06:29:00,0.0,0.0,29.75,North,0,0.0,0.0,0,0.09,,,0.71,WUHU216HW,2013-01-17 11:29:00,
2013-01-17 06:34:00,0.0,0.0,29.76,North,0,0.0,0.0,0,0.00,,,0.71,WUHU216HW,2013-01-17 11:34:00,
2013-01-17 06:39:00,0.0,0.0,29.77,North,0,0.0,0.0,0,0.00,,,0.71,WUHU216HW,2013-01-17 11:39:00,
2013-01-17 06:44:00,0.0,0.0,29.76,North,0,0.0,0.0,0,0.00,,,0.71,WUHU216HW,2013-01-17 11:44:00,
2013-01-17 06:49:00,0.0,0.0,29.76,North,0,0.0,0.0,0,0.00,,,0.71,WUHU216HW,2013-01-17 11:49:00,
2013-01-17 06:54:00,0.0,0.0,29.78,North,0,0.0,0.0,0,0.00,,,0.71,WUHU216HW,2013-01-17 11:54:00,
2013-01-17 06:59:00,0.0,0.0,29.78,North,0,0.0,0.0,0,0.00,,,0.71,WUHU216HW,2013-01-17 11:59:00,
2013-01-17 07:04:00,0.0,0.0,29.78,North,0,0.0,0.0,0,0.00,,,0.71,WUHU216HW,2013-01-17 12:04:00,
2013-01-17 07:09:00,0.0,0.0,29.78,North,0,0.0,0.0,0,0.00,,,0.71,WUHU216HW,2013-01-17 12:09:00,
2013-01-17 07:14:00,0.0,0.0,29.79,North,0,0.0,0.0,0,0.00,,,0.71,WUHU216HW,2013-01-17 12:14:00,
2013-01-17 07:19:00,0.0,0.0,29.78,North,0,0.0,0.0,0,0.00,,,0.71,WUHU216HW,2013-01-17 12:19:00,
2013-01-17 07:24:00,0.0,0.0,29.79,North,0,0.0,0.0,0,0.00,,,0.71,WUHU216HW,2013-01-17 12:24:00,
2013-01-17 07:29:00,0.0,0.0,29.78,North,0,0.0,0.0,0,0.00,,,0.71,WUHU216HW,2013-01-17 12:29:00,
2013-01-17 07:34:00,0.0,0.0,29.78,North,0,0.0,0.0,0,0.00,,,0.71,WUHU216HW,2013-01-17 12:34:00,
2013-01-17 07:39:00,0.0,0.0,29.78,North,0,0.0,0.0,0,0.00,,,0.71,WUHU216HW,2013-01-17 12:39:00,
2013-01-17 07:44:00,0.0,0.0,29.79,North,0,0.0,0.0,0,0.00,,,0.71,WUHU216HW,2013-01-17 12:44:00,
2013-01-17 07:49:00,0.0,0.0,29.79,North,0,0.0,0.0,0,0.00,,,0.71,WUHU216HW,2013-01-17 12:49:00,
2013-01-17 07:54:00,45.9,0.0,29.80,North,0,0.0,0.0,0,0.17,,,0.88,WUHU216HW,2013-01-17 12:54:00,
2013-01-17 07:59:00,45.7,0.0,29.80,North,0,0.0,0.0,0,0.17,,,0.88,WUHU216HW,2013-01-17 12:59:00,
2013-01-17 08:04:00,45.7,0.0,29.79,North,0,0.0,0.0,0,0.17,,,0.88,WUHU216HW,2013-01-17 13:04:00,
2013-01-17 08:09:00,45.7,0.0,29.79,North,0,0.0,0.0,0,0.17,,,0.88,WUHU216HW,2013-01-17 13:09:00,
2013-01-17 08:14:00,45.7,0.0,29.80,North,0,0.0,0.0,0,0.17,,,0.88,WUHU216HW,2013-01-17 13:14:00,
2013-01-17 08:19:00,45.7,0.0,29.79,North,0,0.0,0.0,0,0.17,,,0.88,WUHU216HW,2013-01-17 13:19:00,
2013-01-17 08:24:00,45.7,0.0,29.80,North,0,0.0,0.0,0,0.17,,,0.88,WUHU216HW,2013-01-17 13:24:00,
2013-01-17 08:29:00,0.0,0.0,29.80,North,0,0.0,0.0,0,0.17,,,0.88,WUHU216HW,2013-01-17 13:29:00,
2013-01-17 08:34:00,45.9,0.0,29.80,North,0,0.0,0.0,0,0.19,,,0.90,WUHU216HW,2013-01-17 13:34:00,
2013-01-17 08:39:00,45.9,0.0,29.80,North,0,0.0,0.0,0,0.22,,,0.92,WUHU216HW,2013-01-17 13:39:00,
2013-01-17 08:44:00,45.9,0.0,29.80,North,0,0.0,0.0,0,0.22,,,0.92,WUHU216HW,2013-01-17 13:44:00,
2013-01-17 08:49:00,45.9,0.0,29.81,North,0,0.0,0.0,0,0.22,,,0.92,WUHU216HW,2013-01-17 13:49:00,
2013-01-17 08:54:00,0.0,0.0,29.81,North,0,0.0,0.0,0,0.04,,,0.92,WUHU216HW,2013-01-17 13:54:00,
2013-01-17 08:59:00,0.0,0.0,29.82,North,0,0.0,0.0,0,0.04,,,0.92,WUHU216HW,2013-01-17 13:59:00,
2013-01-17 09:04:00,0.0,0.0,29.83,North,0,0.0,0.0,0,0.04,,,0.92,WUHU216HW,2013-01-17 14:04:00,
2013-01-17 09:09:00,0.0,0.0,29.82,North,0,0.0,0.0,0,0.04,,,0.92,WUHU216HW,2013-01-17 14:09:00,
2013-01-17 09:14:00,0.0,0.0,29.82,North,0,0.0,0.0,0,0.04,,,0.92,WUHU216HW,2013-01-17 14:14:00,
2013-01-17 09:19:00,0.0,0.0,29.82,North,0,0.0,0.0,0,0.04,,,0.92,WUHU216HW,2013-01-17 14:19:00,
2013-01-17 09:24:00,0.0,0.0,29.81,North,0,0.0,0.0,0,0.04,,,0.92,WUHU216HW,2013-01-17 14:24:00,
2013-01-17 09:29:00,0.0,0.0,29.81,North,0,0.0,0.0,0,0.04,,,0.92,WUHU216HW,2013-01-17 14:29:00,
2013-01-17 09:34:00,0.0,0.0,29.81,North,0,0.0,0.0,0,0.00,,,0.92,WUHU216HW,2013-01-17 14:34:00,
2013-01-17 09:39:00,0.0,0.0,29.81,North,0,0.0,0.0,0,0.00,,,0.92,WUHU216HW,2013-01-17 14:39:00,
2013-01-17 09:44:00,0.0,0.0,29.81,North,0,0.0,0.0,0,0.00,,,0.92,WUHU216HW,2013-01-17 14:44:00,
2013-01-17 09:49:00,0.0,0.0,29.81,North,0,0.0,0.0,0,0.00,,,0.92,WUHU216HW,2013-01-17 14:49:00,
2013-01-17 09:54:00,0.0,0.0,29.81,North,0,0.0,0.0,0,0.00,,,0.92,WUHU216HW,2013-01-17 14:54:00,
2013-01-17 09:59:00,0.0,0.0,29.81,North,0,0.0,0.0,0,0.00,,,0.92,WUHU216HW,2013-01-17 14:59:00,
2013-01-17 10:04:00,0.0,0.0,29.80,North,0,0.0,0.0,0,0.00,,,0.92,WUHU216HW,2013-01-17 15:04:00,
2013-01-17 10:09:00,44.5,0.0,29.80,North,0,0.0,0.0,0,0.15,,,1.08,WUHU216HW,2013-01-17 15:09:00,
2013-01-17 10:14:00,44.3,0.0,29.81,North,0,0.0,0.0,0,0.17,,,1.10,WUHU216HW,2013-01-17 15:14:00,
2013-01-17 10:19:00,43.7,0.0,29.81,North,0,0.0,0.0,0,0.19,,,1.12,WUHU216HW,2013-01-17 15:19:00,
2013-01-17 10:24:00,43.6,0.0,29.81,North,0,0.0,0.0,0,0.19,,,1.12,WUHU216HW,2013-01-17 15:24:00,
2013-01-17 10:29:00,42.8,0.0,29.82,North,0,0.0,0.0,0,0.19,,,1.12,WUHU216HW,2013-01-17 15:29:00,
2013-01-17 10:34:00,42.5,0.0,29.82,North,0,0.0,0.0,0,0.19,,,1.12,WUHU216HW,2013-01-17 15:34:00,
2013-01-17 10:39:00,42.1,0.0,29.82,North,0,0.0,0.0,0,0.19,,,1.12,WUHU216HW,2013-01-17 15:39:00,
2013-01-17 10:44:00,42.1,0.0,29.82,North,0,0.0,0.0,0,0.22,,,1.14,WUHU216HW,2013-01-17 15:44:00,
2013-01-17 10:49:00,41.9,0.0,29.81,North,0,0.0,0.0,0,0.22,,,1.14,WUHU216HW,2013-01-17 15:49:00,
2013-01-17 10:54:00,41.9,0.0,29.81,North,0,0.0,0.0,0,0.22,,,1.14,WUHU216HW,2013-01-17 15:54:00,
2013-01-17 10:59:00,41.6,0.0,29.80,North,0,0.0,0.0,0,0.22,,,1.14,WUHU216HW,2013-01-17 15:59:00,
2013-01-17 11:04:00,41.4,0.0,29.80,North,0,0.0,0.0,0,0.06,,,1.14,WUHU216HW,2013-01-17 16:04:00,
2013-01-17 11:09:00,41.2,0.0,29.81,North,0,0.0,0.0,0,0.09,,,1.16,WUHU216HW,2013-01-17 16:09:00,
2013-01-17 11:14:00,40.7,0.0,29.80,North,0,0.0,0.0,0,0.06,,,1.16,WUHU216HW,2013-01-17 16:14:00,
2013-01-17 11:19:00,40.5,0.0,29.80,North,0,0.0,0.0,0,0.04,,,1.16,WUHU216HW,2013-01-17 16:19:00,
2013-01-17 11:24:00,40.1,0.0,29.80,North,0,0.0,0.0,0,0.04,,,1.16,WUHU216HW,2013-01-17 16:24:00,
2013-01-17 11:29:00,39.8,0.0,29.80,North,0,0.0,0.0,0,0.06,,,1.18,WUHU216HW,2013-01-17 16:29:00,
2013-01-17 11:34:00,39.4,0.0,29.80,North,0,0.0,0.0,0,0.06,,,1.18,WUHU216HW,2013-01-17 16:34:00,
2013-01-17 11:39:00,39.1,0.0,29.80,North,0,0.0,0.0,0,0.09,,,1.21,WUHU216HW,2013-01-17 16:39:00,
2013-01-17 11:44:00,38.9,0.0,29.80,North,0,0.0,0.0,0,0.09,,,1.23,WUHU216HW,2013-01-17 16:44:00,
2013-01-17 11:49:00,38.7,0.0,29.80,North,0,0.0,0.0,0,0.11,,,1.25,WUHU216HW,2013-01-17 16:49:00,
2013-01-17 11:54:00,38.5,0.0,29.80,North,0,0.0,0.0,0,0.17,,,1.31,WUHU216HW,2013-01-17 16:54:00,
2013-01-17 11:59:00,38.5,0.0,29.79,North,0,0.0,0.0,0,0.19,,,1.33,WUHU216HW,2013-01-17 16:59:00,
2013-01-17 12:04:00,38.7,0.0,29.78,North,0,0.0,0.0,0,0.26,,,1.42,WUHU216HW,2013-01-17 17:04:00,
2013-01-17 12:09:00,38.9,0.0,29.78,North,0,0.0,0.0,0,0.28,,,1.44,WUHU216HW,2013-01-17 17:09:00,
2013-01-17 12:14:00,38.9,0.0,29.78,North,0,0.0,0.0,0,0.30,,,1.47,WUHU216HW,2013-01-17 17:14:00,
2013-01-17 12:19:00,38.7,0.0,29.78,North,0,0.0,0.0,0,0.33,,,1.49,WUHU216HW,2013-01-17 17:19:00,
2013-01-17 12:24:00,38.9,0.0,29.77,North,0,0.0,0.0,0,0.33,,,1.49,WUHU216HW,2013-01-17 17:24:00,
2013-01-17 12:29:00,38.9,0.0,29.77,North,0,0.0,0.0,0,0.30,,,1.49,WUHU216HW,2013-01-17 17:29:00,
2013-01-17 12:34:00,39.2,0.0,29.77,North,0,0.0,0.0,0,0.33,,,1.51,WUHU216HW,2013-01-17 17:34:00,
2013-01-17 12:39:00,39.2,0.0,29.77,North,0,0.0,0.0,0,0.30,,,1.51,WUHU216HW,2013-01-17 17:39:00,
2013-01-17 12:44:00,39.1,0.0,29.77,North,0,0.0,0.0,0,0.28,,,1.53,WUHU216HW,2013-01-17 17:44:00,
2013-01-17 12:49:00,39.1,0.0,29.76,North,0,0.0,0.0,0,0.24,,,1.53,WUHU216HW,2013-01-17 17:49:00,
2013-01-17 12:54:00,39.2,0.0,29.75,North,0,0.0,0.0,0,0.22,,,1.53,WUHU216HW,2013-01-17 17:54:00,
2013-01-17 12:59:00,39.2,0.0,29.74,North,0,0.0,0.0,0,0.17,,,1.53,WUHU216HW,2013-01-17 17:59:00,
2013-01-17 13:04:00,39.2,0.0,29.73,North,0,0.0,0.0,0,0.11,,,1.55,WUHU216HW,2013-01-17 18:04:00,
2013-01-17 13:09:00,39.2,0.0,29.72,North,0,0.0,0.0,0,0.11,,,1.57,WUHU216HW,2013-01-17 18:09:00,
2013-01-17 13:14:00,39.2,0.0,29.73,North,0,0.0,0.0,0,0.09,,,1.57,WUHU216HW,2013-01-17 18:14:00,
2013-01-17 13:19:00,39.4,0.0,29.73,North,0,0.0,0.0,0,0.09,,,1.57,WUHU216HW,2013-01-17 18:19:00,
2013-01-17 13:24:00,39.2,0.0,29.73,North,0,0.0,0.0,0,0.09,,,1.57,WUHU216HW,2013-01-17 18:24:00,
2013-01-17 13:29:00,39.2,0.0,29.73,North,0,0.0,0.0,0,0.06,,,1.57,WUHU216HW,2013-01-17 18:29:00,
2013-01-17 13:34:00,39.2,0.0,29.71,North,0,0.0,0.0,0,0.06,,,1.57,WUHU216HW,2013-01-17 18:34:00,
2013-01-17 13:39:00,39.2,0.0,29.71,North,0,0.0,0.0,0,0.06,,,1.57,WUHU216HW,2013-01-17 18:39:00,
2013-01-17 13:44:00,39.1,0.0,29.70,North,0,0.0,0.0,0,0.06,,,1.59,WUHU216HW,2013-01-17 18:44:00,
2013-01-17 13:49:00,38.9,0.0,29.70,North,0,0.0,0.0,0,0.06,,,1.59,WUHU216HW,2013-01-17 18:49:00,
2013-01-17 13:54:00,38.9,0.0,29.70,North,0,0.0,0.0,0,0.09,,,1.62,WUHU216HW,2013-01-17 18:54:00,
2013-01-17 13:59:00,39.1,0.0,29.69,North,0,0.0,0.0,0,0.06,,,1.62,WUHU216HW,2013-01-17 18:59:00,
2013-01-17 14:04:00,38.7,0.0,29.69,North,0,0.0,0.0,0,0.04,,,1.62,WUHU216HW,2013-01-17 19:04:00,
2013-01-17 14:09:00,38.9,0.0,29.69,North,0,0.0,0.0,0,0.04,,,1.62,WUHU216HW,2013-01-17 19:09:00,
2013-01-17 14:14:00,38.9,0.0,29.69,North,0,0.0,0.0,0,0.04,,,1.62,WUHU216HW,2013-01-17 19:14:00,
2013-01-17 14:19:00,38.9,0.0,29.69,North,0,0.0,0.0,0,0.04,,,1.62,WUHU216HW,2013-01-17 19:19:00,
2013-01-17 14:24:00,38.7,0.0,29.68,North,0,0.0,0.0,0,0.06,,,1.64,WUHU216HW,2013-01-17 19:24:00,
2013-01-17 14:29:00,38.9,0.0,29.69,North,0,0.0,0.0,0,0.06,,,1.64,WUHU216HW,2013-01-17 19:29:00,
2013-01-17 14:34:00,38.9,0.0,29.70,North,0,0.0,0.0,0,0.06,,,1.64,WUHU216HW,2013-01-17 19:34:00,
2013-01-17 14:39:00,38.9,0.0,29.70,North,0,0.0,0.0,0,0.04,,,1.64,WUHU216HW,2013-01-17 19:39:00,
2013-01-17 14:44:00,38.7,0.0,29.70,North,0,0.0,0.0,0,0.04,,,1.64,WUHU216HW,2013-01-17 19:44:00,
2013-01-17 14:49:00,38.9,0.0,29.70,North,0,0.0,0.0,0,0.04,,,1.64,WUHU216HW,2013-01-17 19:49:00,
2013-01-17 14:54:00,38.9,0.0,29.71,North,0,0.0,0.0,0,0.02,,,1.64,WUHU216HW,2013-01-17 19:54:00,
2013-01-17 14:59:00,38.9,0.0,29.70,North,0,0.0,0.0,0,0.02,,,1.64,WUHU216HW,2013-01-17 19:59:00,
2013-01-17 15:04:00,38.9,0.0,29.70,North,0,0.0,0.0,0,0.02,,,1.64,WUHU216HW,2013-01-17 20:04:00,
2013-01-17 15:09:00,38.9,0.0,29.69,North,0,0.0,0.0,0,0.02,,,1.64,WUHU216HW,2013-01-17 20:09:00,
2013-01-17 15:14:00,38.9,0.0,29.70,North,0,0.0,0.0,0,0.04,,,1.66,WUHU216HW,2013-01-17 20:14:00,
2013-01-17 15:19:00,38.9,0.0,29.69,North,0,0.0,0.0,0,0.02,,,1.66,WUHU216HW,2013-01-17 20:19:00,
2013-01-17 15:24:00,38.9,0.0,29.69,North,0,0.0,0.0,0,0.02,,,1.66,WUHU216HW,2013-01-17 20:24:00,
2013-01-17 15:29:00,38.9,0.0,29.69,North,0,0.0,0.0,0,0.04,,,1.68,WUHU216HW,2013-01-17 20:29:00,
2013-01-17 15:34:00,38.9,0.0,29.70,North,0,0.0,0.0,0,0.04,,,1.68,WUHU216HW,2013-01-17 20:34:00,
2013-01-17 15:39:00,38.7,0.0,29.70,North,0,0.0,0.0,0,0.04,,,1.68,WUHU216HW,2013-01-17 20:39:00,
2013-01-17 15:44:00,38.5,0.0,29.69,North,0,0.0,0.0,0,0.06,,,1.70,WUHU216HW,2013-01-17 20:44:00,
2013-01-17 15:49:00,38.7,0.0,29.70,North,0,0.0,0.0,0,0.06,,,1.70,WUHU216HW,2013-01-17 20:49:00,
2013-01-17 15:54:00,38.7,0.0,29.71,North,0,0.0,0.0,0,0.06,,,1.70,WUHU216HW,2013-01-17 20:54:00,
2013-01-17 15:59:00,38.5,0.0,29.73,North,0,0.0,0.0,0,0.09,,,1.73,WUHU216HW,2013-01-17 20:59:00,
2013-01-17 16:04:00,38.7,0.0,29.74,North,0,0.0,0.0,0,0.11,,,1.75,WUHU216HW,2013-01-17 21:04:00,
2013-01-17 16:09:00,38.7,0.0,29.74,North,0,0.0,0.0,0,0.13,,,1.77,WUHU216HW,2013-01-17 21:09:00,
2013-01-17 16:14:00,38.7,0.0,29.74,North,0,0.0,0.0,0,0.15,,,1.81,WUHU216HW,2013-01-17 21:14:00,
2013-01-17 16:19:00,38.5,0.0,29.74,North,0,0.0,0.0,0,0.22,,,1.88,WUHU216HW,2013-01-17 21:19:00,
2013-01-17 16:24:00,38.3,0.0,29.72,North,0,0.0,0.0,0,0.26,,,1.94,WUHU216HW,2013-01-17 21:24:00,
2013-01-17 16:29:00,38.3,0.0,29.72,North,0,0.0,0.0,0,0.33,,,2.01,WUHU216HW,2013-01-17 21:29:00,
2013-01-17 16:34:00,37.8,0.0,29.72,North,0,0.0,0.0,0,0.39,,,2.07,WUHU216HW,2013-01-17 21:34:00,
2013-01-17 16:39:00,37.6,0.0,29.72,North,0,0.0,0.0,0,0.41,,,2.12,WUHU216HW,2013-01-17 21:39:00,
2013-01-17 16:44:00,37.4,0.0,29.72,North,0,0.0,0.0,0,0.43,,,2.14,WUHU216HW,2013-01-17 21:44:00,
2013-01-17 16:49:00,37.1,0.0,29.72,North,0,0.0,0.0,0,0.50,,,2.20,WUHU216HW,2013-01-17 21:49:00,
2013-01-17 16:54:00,36.9,0.0,29.72,North,0,0.0,0.0,0,0.50,,,2.22,WUHU216HW,2013-01-17 21:54:00,
2013-01-17 16:59:00,36.9,0.0,29.71,North,0,0.0,0.0,0,0.54,,,2.27,WUHU216HW,2013-01-17 21:59:00,
2013-01-17 17:04:00,36.9,0.0,29.71,North,0,0.0,0.0,0,0.50,,,2.27,WUHU216HW,2013-01-17 22:04:00,
2013-01-17 17:09:00,0.0,0.0,29.70,North,0,0.0,0.0,0,0.46,,,2.27,WUHU216HW,2013-01-17 22:09:00,
2013-01-17 17:14:00,0.0,0.0,29.70,North,0,0.0,0.0,0,0.39,,,2.27,WUHU216HW,2013-01-17 22:14:00,
2013-01-17 17:19:00,36.5,0.0,29.70,North,0,0.0,0.0,0,0.54,,,2.42,WUHU216HW,2013-01-17 22:19:00,
2013-01-17 17:24:00,36.5,0.0,29.71,North,0,0.0,0.0,0,0.43,,,2.44,WUHU216HW,2013-01-17 22:24:00,
2013-01-17 17:29:00,36.4,0.0,29.71,North,0,0.0,0.0,0,0.48,,,2.53,WUHU216HW,2013-01-17 22:29:00,
2013-01-17 17:34:00,36.4,0.0,29.69,North,0,0.0,0.0,0,0.48,,,2.55,WUHU216HW,2013-01-17 22:34:00,
2013-01-17 17:39:00,36.4,0.0,29.69,North,0,0.0,0.0,0,0.48,,,2.59,WUHU216HW,2013-01-17 22:39:00,
2013-01-17 17:44:00,36.2,0.0,29.69,North,0,0.0,0.0,0,0.43,,,2.59,WUHU216HW,2013-01-17 22:44:00,
2013-01-17 17:49:00,36.2,0.0,29.72,North,0,0.0,0.0,0,0.39,,,2.59,WUHU216HW,2013-01-17 22:49:00,
2013-01-17 17:54:00,0.0,0.0,29.74,North,0,0.0,0.0,0,0.37,,,2.59,WUHU216HW,2013-01-17 22:54:00,
2013-01-17 17:59:00,0.0,0.0,29.74,North,0,0.0,0.0,0,0.33,,,2.59,WUHU216HW,2013-01-17 22:59:00,
2013-01-17 18:04:00,36.0,0.0,29.76,North,0,0.0,0.0,0,0.46,,,2.72,WUHU216HW,2013-01-17 23:04:00,
2013-01-17 18:09:00,36.0,0.0,29.75,North,0,0.0,0.0,0,0.48,,,2.74,WUHU216HW,2013-01-17 23:09:00,
2013-01-17 18:14:00,36.0,0.0,29.74,North,0,0.0,0.0,0,0.35,,,2.77,WUHU216HW,2013-01-17 23:14:00,
2013-01-17 18:19:00,35.3,0.0,29.74,North,0,0.0,0.0,0,0.39,,,2.81,WUHU216HW,2013-01-17 23:19:00,
2013-01-17 18:24:00,34.9,0.0,29.75,North,0,0.0,0.0,0,0.30,,,2.83,WUHU216HW,2013-01-17 23:24:00,
2013-01-17 18:29:00,35.0,0.0,29.76,North,0,0.0,0.0,0,0.28,,,2.83,WUHU216HW,2013-01-17 23:29:00,
2013-01-17 18:34:00,0.0,0.0,29.75,North,0,0.0,0.0,0,0.26,,,2.83,WUHU216HW,2013-01-17 23:34:00,
2013-01-17 18:39:00,33.7,0.0,29.76,North,0,0.0,0.0,0,0.24,,,2.83,WUHU216HW,2013-01-17 23:39:00,
2013-01-17 18:44:00,33.1,0.0,29.76,North,0,0.0,0.0,0,0.30,,,2.89,WUHU216HW,2013-01-17 23:44:00,
2013-01-17 18:49:00,32.8,0.0,29.77,North,0,0.0,0.0,0,0.30,,,2.89,WUHU216HW,2013-01-17 23:49:00,
2013-01-17 18:54:00,32.6,0.0,29.77,North,0,0.0,0.0,0,0.30,,,2.89,WUHU216HW,2013-01-17 23:54:00,
2013-01-17 18:59:00,32.4,0.0,29.77,North,0,0.0,0.0,0,0.26,,,2.89,WUHU216HW,2013-01-17 23:59:00,
2013-01-17 19:04:00,32.4,0.0,29.76,North,0,0.0,0.0,0,0.19,,,2.92,WUHU216HW,2013-01-18 00:04:00,
2013-01-17 19:09:00,32.2,0.0,29.76,North,0,0.0,0.0,0,0.15,,,2.92,WUHU216HW,2013-01-18 00:09:00,
2013-01-17 19:14:00,32.4,0.0,29.77,North,0,0.0,0.0,0,0.15,,,2.94,WUHU216HW,2013-01-18 00:14:00,
2013-01-17 19:19:00,32.4,0.0,29.77,North,0,0.0,0.0,0,0.13,,,2.94,WUHU216HW,2013-01-18 00:19:00,
2013-01-17 19:24:00,32.4,0.0,29.77,North,0,0.0,0.0,0,0.11,,,2.94,WUHU216HW,2013-01-18 00:24:00,
2013-01-17 19:29:00,32.2,0.0,29.76,North,0,0.0,0.0,0,0.13,,,2.96,WUHU216HW,2013-01-18 00:29:00,
2013-01-17 19:34:00,32.0,0.0,29.77,North,0,0.0,0.0,0,0.13,,,2.96,WUHU216HW,2013-01-18 00:34:00,
2013-01-17 19:39:00,32.0,0.0,29.78,North,0,0.0,0.0,0,0.06,,,2.96,WUHU216HW,2013-01-18 00:39:00,
2013-01-17 19:44:00,32.0,0.0,29.79,North,0,0.0,0.0,0,0.06,,,2.96,WUHU216HW,2013-01-18 00:44:00,
2013-01-17 19:49:00,32.0,0.0,29.78,North,0,0.0,0.0,0,0.06,,,2.96,WUHU216HW,2013-01-18 00:49:00,
2013-01-17 19:54:00,32.0,0.0,29.79,North,0,0.0,0.0,0,0.09,,,2.98,WUHU216HW,2013-01-18 00:54:00,
2013-01-17 19:59:00,32.0,0.0,29.78,North,0,0.0,0.0,0,0.06,,,2.98,WUHU216HW,2013-01-18 00:59:00,
2013-01-17 20:04:00,31.9,0.0,29.77,North,0,0.0,0.0,0,0.06,,,2.98,WUHU216HW,2013-01-18 01:04:00,
2013-01-17 20:09:00,31.7,0.0,29.78,North,0,0.0,0.0,0,0.06,,,2.98,WUHU216HW,2013-01-18 01:09:00,
2013-01-17 20:14:00,31.9,0.0,29.78,North,0,0.0,0.0,0,0.06,,,3.00,WUHU216HW,2013-01-18 01:14:00,
2013-01-17 20:19:00,31.7,0.0,29.78,North,0,0.0,0.0,0,0.06,,,3.00,WUHU216HW,2013-01-18 01:19:00,
2013-01-17 20:24:00,31.7,0.0,29.76,North,0,0.0,0.0,0,0.04,,,3.00,WUHU216HW,2013-01-18 01:24:00,
2013-01-17 20:29:00,31.7,0.0,29.75,North,0,0.0,0.0,0,0.04,,,3.00,WUHU216HW,2013-01-18 01:29:00,
2013-01-17 20:34:00,31.7,0.0,29.76,North,0,0.0,0.0,0,0.04,,,3.00,WUHU216HW,2013-01-18 01:34:00,
2013-01-17 20:39:00,31.5,0.0,29.78,North,0,0.0,0.0,0,0.04,,,3.00,WUHU216HW,2013-01-18 01:39:00,
2013-01-17 20:44:00,31.5,0.0,29.78,North,0,0.0,0.0,0,0.04,,,3.00,WUHU216HW,2013-01-18 01:44:00,
2013-01-17 20:49:00,31.5,0.0,29.78,North,0,0.0,0.0,0,0.02,,,3.00,WUHU216HW,2013-01-18 01:49:00,
2013-01-17 20:54:00,31.5,0.0,29.80,North,0,0.0,0.0,0,0.02,,,3.00,WUHU216HW,2013-01-18 01:54:00,
2013-01-17 20:59:00,31.5,0.0,29.81,North,0,0.0,0.0,0,0.02,,,3.00,WUHU216HW,2013-01-18 01:59:00,
2013-01-17 21:04:00,31.5,0.0,29.82,North,0,0.0,0.0,0,0.02,,,3.00,WUHU216HW,2013-01-18 02:04:00,
2013-01-17 21:09:00,31.5,0.0,29.81,North,0,0.0,0.0,0,0.02,,,3.00,WUHU216HW,2013-01-18 02:09:00,
2013-01-17 21:14:00,31.5,0.0,29.82,North,0,0.0,0.0,0,0.02,,,3.03,WUHU216HW,2013-01-18 02:14:00,
2013-01-17 21:19:00,31.3,0.0,29.83,North,0,0.0,0.0,0,0.02,,,3.03,WUHU216HW,2013-01-18 02:19:00,
2013-01-17 21:24:00,31.5,0.0,29.83,North,0,0.0,0.0,0,0.02,,,3.03,WUHU216HW,2013-01-18 02:24:00,
2013-01-17 21:29:00,31.3,0.0,29.83,North,0,0.0,0.0,0,0.02,,,3.03,WUHU216HW,2013-01-18 02:29:00,
2013-01-17 21:34:00,31.3,0.0,29.82,North,0,0.0,0.0,0,0.02,,,3.03,WUHU216HW,2013-01-18 02:34:00,
2013-01-17 21:39:00,31.5,0.0,29.82,North,0,0.0,0.0,0,0.02,,,3.03,WUHU216HW,2013-01-18 02:39:00,
2013-01-17 21:44:00,31.3,0.0,29.82,North,0,0.0,0.0,0,0.02,,,3.03,WUHU216HW,2013-01-18 02:44:00,
2013-01-17 21:49:00,31.3,0.0,29.82,North,0,0.0,0.0,0,0.02,,,3.03,WUHU216HW,2013-01-18 02:49:00,
2013-01-17 21:54:00,31.3,0.0,29.83,North,0,0.0,0.0,0,0.02,,,3.03,WUHU216HW,2013-01-18 02:54:00,
2013-01-17 21:59:00,31.3,0.0,29.84,North,0,0.0,0.0,0,0.02,,,3.03,WUHU216HW,2013-01-18 02:59:00,
2013-01-17 22:04:00,31.3,0.0,29.85,North,0,0.0,0.0,0,0.02,,,3.03,WUHU216HW,2013-01-18 03:04:00,
2013-01-17 22:09:00,31.3,0.0,29.86,North,0,0.0,0.0,0,0.02,,,3.03,WUHU216HW,2013-01-18 03:09:00,
2013-01-17 22:14:00,31.3,0.0,29.87,North,0,0.0,0.0,0,0.00,,,3.03,WUHU216HW,2013-01-18 03:14:00,
2013-01-17 22:19:00,31.3,0.0,29.87,North,0,0.0,0.0,0,0.00,,,3.03,WUHU216HW,2013-01-18 03:19:00,
2013-01-17 22:24:00,31.3,0.0,29.88,North,0,0.0,0.0,0,0.00,,,3.03,WUHU216HW,2013-01-18 03:24:00,
2013-01-17 22:29:00,31.3,0.0,29.88,North,0,0.0,0.0,0,0.00,,,3.03,WUHU216HW,2013-01-18 03:29:00,
2013-01-17 22:34:00,31.3,0.0,29.88,North,0,0.0,0.0,0,0.00,,,3.03,WUHU216HW,2013-01-18 03:34:00,
2013-01-17 22:39:00,31.3,0.0,29.90,North,0,0.0,0.0,0,0.00,,,3.03,WUHU216HW,2013-01-18 03:39:00,
2013-01-17 22:44:00,31.3,0.0,29.91,North,0,0.0,0.0,0,0.00,,,3.03,WUHU216HW,2013-01-18 03:44:00,
2013-01-17 22:49:00,31.3,0.0,29.92,North,0,0.0,0.0,0,0.02,,,3.05,WUHU216HW,2013-01-18 03:49:00,
2013-01-17 22:54:00,31.3,0.0,29.93,North,0,0.0,0.0,0,0.02,,,3.05,WUHU216HW,2013-01-18 03:54:00,
2013-01-17 22:59:00,31.3,0.0,29.93,North,0,0.0,0.0,0,0.02,,,3.05,WUHU216HW,2013-01-18 03:59:00,
2013-01-17 23:04:00,31.3,0.0,29.94,North,0,0.0,0.0,0,0.02,,,3.05,WUHU216HW,2013-01-18 04:04:00,
2013-01-17 23:09:00,31.3,0.0,29.93,North,0,0.0,0.0,0,0.02,,,3.05,WUHU216HW,2013-01-18 04:09:00,
2013-01-17 23:14:00,31.3,0.0,29.93,North,0,0.0,0.0,0,0.02,,,3.05,WUHU216HW,2013-01-18 04:14:00,
2013-01-17 23:19:00,31.3,0.0,29.93,North,0,0.0,0.0,0,0.02,,,3.05,WUHU216HW,2013-01-18 04:19:00,
2013-01-17 23:24:00,31.3,0.0,29.93,North,0,0.0,0.0,0,0.02,,,3.05,WUHU216HW,2013-01-18 04:24:00,
2013-01-17 23:29:00,31.3,0.0,29.93,North,0,0.0,0.0,0,0.02,,,3.05,WUHU216HW,2013-01-18 04:29:00,
2013-01-17 23:34:00,31.3,0.0,29.94,North,0,0.0,0.0,0,0.02,,,3.05,WUHU216HW,2013-01-18 04:34:00,
2013-01-17 23:39:00,31.3,0.0,29.93,North,0,0.0,0.0,0,0.02,,,3.05,WUHU216HW,2013-01-18 04:39:00,
2013-01-17 23:44:00,31.3,0.0,29.93,North,0,0.0,0.0,0,0.00,,,3.05,WUHU216HW,2013-01-18 04:44:00,
2013-01-17 23:49:00,31.3,0.0,29.93,North,0,0.0,0.0,0,0.00,,,3.05,WUHU216HW,2013-01-18 04:49:00,
2013-01-17 23:54:00,31.3,0.0,29.94,North,0,0.0,0.0,0,0.00,,,3.05,WUHU216HW,2013-01-18 04:54:00,
2013-01-17 23:59:00,31.3,0.0,29.94,North,0,0.0,0.0,0,0.00,,,3.05,WUHU216HW,2013-01-18 04:59:00,